Location: Wavehorne
(51.0500°N, 0.8333°E)
Time: 13:05:38
(UTC+00:00)

Cosmos 1943 - Pass Details

Date: 20 June 2021
Orbit: 831 x 852 km, 71.0° (Epoch: 31 July)

Event Time Altitude Azimuth Distance (km) Brightness Sun altitude
Exits shadow 01:33:48 17° 212° (SSW) 1,989 4.5 -12.6°
Maximum altitude 01:38:12 83° 299° (WNW) 851 3.2 -12.3°
Drops below altitude 10° 01:43:54 10° 29° (NNE) 2,470 7.2 -12.0°
Sets 01:46:21 0° 30° (NNE) 3,412 8.5 -11.8°
